Time,TemperatureF,DewpointF,PressureIn,WindDirection,WindDirectionDegrees,WindSpeedMPH,WindSpeedGustMPH,Humidity,HourlyPrecipIn,Conditions,Clouds,dailyrainin,SoftwareType,DateUTC
2013-09-20 00:01:00,62.3,60.8,30.04,South,169,0.0,0.0,95,0.00,,,0.00,VWS V14.00,2013-09-20 04:01:00,
2013-09-20 00:02:00,62.3,60.8,30.04,South,169,0.0,0.0,95,0.00,,,0.00,VWS V14.00,2013-09-20 04:02:00,
2013-09-20 00:07:00,62.3,61.2,30.04,South,169,0.0,0.0,96,0.00,,,0.00,VWS V14.00,2013-09-20 04:07:00,
2013-09-20 00:11:00,62.3,61.2,30.04,South,169,0.0,0.0,96,0.00,,,0.00,VWS V14.00,2013-09-20 04:11:00,
2013-09-20 00:13:00,62.3,61.2,30.04,South,169,0.0,0.0,96,0.00,,,0.00,VWS V14.00,2013-09-20 04:13:00,
2013-09-20 00:18:00,62.2,61.0,30.04,South,169,0.0,0.0,96,0.00,,,0.00,VWS V14.00,2013-09-20 04:18:00,
2013-09-20 00:23:00,62.2,61.0,30.03,South,169,0.0,0.0,96,0.00,,,0.00,VWS V14.00,2013-09-20 04:23:00,
2013-09-20 00:28:00,62.3,61.2,30.03,South,169,0.0,0.0,96,0.00,,,0.00,VWS V14.00,2013-09-20 04:28:00,
2013-09-20 00:33:00,62.4,61.2,30.03,South,169,0.0,0.0,96,0.00,,,0.00,VWS V14.00,2013-09-20 04:33:00,
2013-09-20 00:38:00,62.4,61.2,30.03,South,169,0.0,0.0,96,0.00,,,0.00,VWS V14.00,2013-09-20 04:38:00,
2013-09-20 00:43:00,62.4,61.2,30.03,South,169,0.0,0.0,96,0.00,,,0.00,VWS V14.00,2013-09-20 04:43:00,
2013-09-20 00:49:00,62.4,61.2,30.03,South,169,0.0,0.0,96,0.00,,,0.00,VWS V14.00,2013-09-20 04:49:00,
2013-09-20 00:54:00,62.4,61.2,30.03,South,169,0.0,0.0,96,0.00,,,0.00,VWS V14.00,2013-09-20 04:54:00,
2013-09-20 00:59:00,62.3,61.2,30.03,South,169,0.0,0.0,96,0.00,,,0.00,VWS V14.00,2013-09-20 04:59:00,
2013-09-20 01:04:00,62.3,61.2,30.03,South,169,0.0,0.0,96,0.00,,,0.00,VWS V14.00,2013-09-20 05:04:00,
2013-09-20 01:09:00,62.2,61.0,30.03,South,169,0.0,0.0,96,0.00,,,0.00,VWS V14.00,2013-09-20 05:09:00,
2013-09-20 01:14:00,62.1,61.0,30.03,South,169,0.0,0.0,96,0.00,,,0.00,VWS V14.00,2013-09-20 05:14:00,
2013-09-20 01:19:00,62.1,61.0,30.03,South,169,0.0,0.0,96,0.00,,,0.00,VWS V14.00,2013-09-20 05:19:00,
2013-09-20 01:24:00,62.0,60.8,30.03,South,169,0.0,0.0,96,0.00,,,0.00,VWS V14.00,2013-09-20 05:24:00,
2013-09-20 01:29:00,62.0,60.8,30.03,South,169,0.0,0.0,96,0.00,,,0.00,VWS V14.00,2013-09-20 05:29:00,
2013-09-20 01:35:00,61.9,61.0,30.03,South,169,0.0,0.0,97,0.00,,,0.00,VWS V14.00,2013-09-20 05:35:00,
2013-09-20 01:40:00,61.9,60.8,30.04,South,169,0.0,0.0,96,0.00,,,0.00,VWS V14.00,2013-09-20 05:40:00,
2013-09-20 01:45:00,61.8,60.7,30.03,South,169,0.0,0.0,96,0.00,,,0.00,VWS V14.00,2013-09-20 05:45:00,
2013-09-20 01:50:00,61.8,60.7,30.04,South,169,0.0,0.0,96,0.00,,,0.00,VWS V14.00,2013-09-20 05:50:00,
2013-09-20 01:55:00,61.7,60.5,30.03,South,169,0.0,0.0,96,0.00,,,0.00,VWS V14.00,2013-09-20 05:55:00,
2013-09-20 02:00:00,61.7,60.5,30.03,South,169,0.0,0.0,96,0.00,,,0.00,VWS V14.00,2013-09-20 06:00:00,
2013-09-20 02:05:00,61.7,60.8,30.04,South,169,0.0,0.0,97,0.00,,,0.00,VWS V14.00,2013-09-20 06:05:00,
2013-09-20 02:10:00,61.6,60.7,30.04,South,169,0.0,0.0,97,0.00,,,0.00,VWS V14.00,2013-09-20 06:10:00,
2013-09-20 02:15:00,61.6,60.7,30.04,South,169,0.0,0.0,97,0.00,,,0.00,VWS V14.00,2013-09-20 06:15:00,
2013-09-20 02:21:00,61.5,60.6,30.04,South,169,0.0,0.0,97,0.00,,,0.00,VWS V14.00,2013-09-20 06:21:00,
2013-09-20 02:26:00,61.4,60.5,30.04,South,169,0.0,0.0,97,0.00,,,0.00,VWS V14.00,2013-09-20 06:26:00,
2013-09-20 02:31:00,61.4,60.5,30.04,South,169,0.0,0.0,97,0.00,,,0.00,VWS V14.00,2013-09-20 06:31:00,
2013-09-20 02:36:00,61.5,60.6,30.04,South,169,0.0,0.0,97,0.00,,,0.00,VWS V14.00,2013-09-20 06:36:00,
2013-09-20 02:41:00,61.4,60.5,30.04,South,169,0.0,0.0,97,0.00,,,0.00,VWS V14.00,2013-09-20 06:41:00,
2013-09-20 02:46:00,61.3,60.4,30.04,South,169,0.0,0.0,97,0.00,,,0.00,VWS V14.00,2013-09-20 06:46:00,
2013-09-20 02:51:00,61.3,60.4,30.04,South,169,0.0,0.0,97,0.00,,,0.00,VWS V14.00,2013-09-20 06:51:00,
2013-09-20 02:56:00,61.3,60.4,30.04,South,169,0.0,0.0,97,0.00,,,0.00,VWS V14.00,2013-09-20 06:56:00,
2013-09-20 03:01:00,61.4,60.5,30.04,South,169,0.0,0.0,97,0.00,,,0.00,VWS V14.00,2013-09-20 07:01:00,
2013-09-20 03:06:00,61.4,60.5,30.04,South,169,0.0,0.0,97,0.00,,,0.00,VWS V14.00,2013-09-20 07:06:00,
2013-09-20 03:12:00,61.4,60.5,30.04,South,169,0.0,0.0,97,0.00,,,0.00,VWS V14.00,2013-09-20 07:12:00,
2013-09-20 03:17:00,61.4,60.5,30.04,South,169,0.0,0.0,97,0.00,,,0.00,VWS V14.00,2013-09-20 07:17:00,
2013-09-20 03:22:00,61.4,60.5,30.04,South,169,0.0,0.0,97,0.00,,,0.00,VWS V14.00,2013-09-20 07:22:00,
2013-09-20 03:27:00,61.5,60.6,30.04,South,169,0.0,0.0,97,0.00,,,0.00,VWS V14.00,2013-09-20 07:27:00,
2013-09-20 03:32:00,61.6,60.7,30.04,South,169,0.0,0.0,97,0.00,,,0.00,VWS V14.00,2013-09-20 07:32:00,
2013-09-20 03:37:00,61.6,60.7,30.04,South,169,0.0,0.0,97,0.00,,,0.00,VWS V14.00,2013-09-20 07:37:00,
2013-09-20 03:42:00,61.6,60.7,30.04,South,169,0.0,0.0,97,0.00,,,0.00,VWS V14.00,2013-09-20 07:42:00,
2013-09-20 03:47:00,61.6,60.7,30.04,South,169,0.0,1.0,97,0.00,,,0.00,VWS V14.00,2013-09-20 07:47:00,
2013-09-20 03:52:00,61.6,60.7,30.04,South,169,0.0,0.0,97,0.00,,,0.00,VWS V14.00,2013-09-20 07:52:00,
2013-09-20 03:58:00,61.7,60.8,30.04,South,169,0.0,0.0,97,0.00,,,0.00,VWS V14.00,2013-09-20 07:58:00,
2013-09-20 04:03:00,61.6,60.5,30.04,South,169,0.0,0.0,96,0.00,,,0.00,VWS V14.00,2013-09-20 08:03:00,
2013-09-20 04:08:00,61.6,60.7,30.04,South,169,0.0,0.0,97,0.00,,,0.00,VWS V14.00,2013-09-20 08:08:00,
2013-09-20 04:13:00,61.6,60.7,30.04,South,169,0.0,0.0,97,0.00,,,0.00,VWS V14.00,2013-09-20 08:13:00,
2013-09-20 04:18:00,61.6,60.7,30.03,South,169,0.0,0.0,97,0.00,,,0.00,VWS V14.00,2013-09-20 08:18:00,
2013-09-20 04:23:00,61.7,60.8,30.03,South,169,0.0,0.0,97,0.00,,,0.00,VWS V14.00,2013-09-20 08:23:00,
2013-09-20 04:28:00,61.8,60.9,30.03,South,169,0.0,0.0,97,0.00,,,0.00,VWS V14.00,2013-09-20 08:28:00,
2013-09-20 04:33:00,61.9,61.0,30.02,South,169,0.0,0.0,97,0.00,,,0.00,VWS V14.00,2013-09-20 08:33:00,
2013-09-20 04:38:00,62.0,61.1,30.02,South,169,0.0,0.0,97,0.00,,,0.00,VWS V14.00,2013-09-20 08:38:00,
2013-09-20 04:43:00,62.1,61.2,30.02,South,169,0.0,0.0,97,0.00,,,0.00,VWS V14.00,2013-09-20 08:43:00,
2013-09-20 04:49:00,62.2,61.3,30.02,South,169,0.0,0.0,97,0.00,,,0.00,VWS V14.00,2013-09-20 08:49:00,
2013-09-20 04:54:00,62.2,61.3,30.02,South,169,0.0,0.0,97,0.00,,,0.00,VWS V14.00,2013-09-20 08:54:00,
2013-09-20 04:59:00,62.1,61.2,30.02,South,169,0.0,0.0,97,0.00,,,0.00,VWS V14.00,2013-09-20 08:59:00,
2013-09-20 05:04:00,62.1,61.2,30.02,South,169,0.0,0.0,97,0.00,,,0.00,VWS V14.00,2013-09-20 09:04:00,
2013-09-20 05:09:00,62.0,61.1,30.02,South,169,0.0,0.0,97,0.00,,,0.00,VWS V14.00,2013-09-20 09:09:00,
2013-09-20 05:14:00,61.9,61.0,30.02,South,169,0.0,0.0,97,0.00,,,0.00,VWS V14.00,2013-09-20 09:14:00,
2013-09-20 05:19:00,61.8,60.9,30.02,South,169,0.0,0.0,97,0.00,,,0.00,VWS V14.00,2013-09-20 09:19:00,
2013-09-20 05:24:00,61.6,60.7,30.02,South,169,0.0,0.0,97,0.00,,,0.00,VWS V14.00,2013-09-20 09:24:00,
2013-09-20 05:29:00,61.5,60.6,30.02,South,169,0.0,0.0,97,0.00,,,0.00,VWS V14.00,2013-09-20 09:29:00,
2013-09-20 05:34:00,61.5,60.6,30.03,South,169,0.0,0.0,97,0.00,,,0.00,VWS V14.00,2013-09-20 09:34:00,
2013-09-20 05:40:00,61.4,60.5,30.03,South,169,0.0,0.0,97,0.00,,,0.00,VWS V14.00,2013-09-20 09:40:00,
2013-09-20 05:45:00,61.3,60.4,30.03,South,169,0.0,0.0,97,0.00,,,0.00,VWS V14.00,2013-09-20 09:45:00,
2013-09-20 05:50:00,61.3,60.4,30.03,South,169,0.0,0.0,97,0.00,,,0.00,VWS V14.00,2013-09-20 09:50:00,
2013-09-20 05:55:00,61.3,60.4,30.04,South,169,0.0,0.0,97,0.00,,,0.00,VWS V14.00,2013-09-20 09:55:00,
2013-09-20 06:00:00,61.2,60.3,30.04,South,169,0.0,0.0,97,0.00,,,0.00,VWS V14.00,2013-09-20 10:00:00,
2013-09-20 06:05:00,61.3,60.4,30.04,South,169,0.0,0.0,97,0.00,,,0.00,VWS V14.00,2013-09-20 10:05:00,
2013-09-20 06:10:00,61.3,60.4,30.04,South,169,0.0,0.0,97,0.00,,,0.00,VWS V14.00,2013-09-20 10:10:00,
2013-09-20 06:15:00,61.2,60.3,30.04,South,169,0.0,0.0,97,0.00,,,0.00,VWS V14.00,2013-09-20 10:15:00,
2013-09-20 06:21:00,61.1,60.2,30.04,South,169,0.0,0.0,97,0.00,,,0.00,VWS V14.00,2013-09-20 10:21:00,
2013-09-20 06:26:00,61.0,60.2,30.04,South,169,0.0,0.0,97,0.00,,,0.00,VWS V14.00,2013-09-20 10:26:00,
2013-09-20 06:31:00,60.9,60.0,30.04,South,169,0.0,0.0,97,0.00,,,0.00,VWS V14.00,2013-09-20 10:31:00,
2013-09-20 06:36:00,60.9,60.0,30.04,South,169,0.0,0.0,97,0.00,,,0.00,VWS V14.00,2013-09-20 10:36:00,
2013-09-20 06:41:00,60.9,60.0,30.04,South,169,0.0,0.0,97,0.00,,,0.00,VWS V14.00,2013-09-20 10:41:00,
2013-09-20 06:46:00,60.8,60.0,30.04,South,169,0.0,0.0,97,0.00,,,0.00,VWS V14.00,2013-09-20 10:46:00,
2013-09-20 06:51:00,60.8,60.0,30.05,South,169,0.0,0.0,97,0.00,,,0.00,VWS V14.00,2013-09-20 10:51:00,
2013-09-20 06:56:00,60.7,59.8,30.04,South,169,0.0,0.0,97,0.00,,,0.00,VWS V14.00,2013-09-20 10:56:00,
2013-09-20 07:02:00,60.7,59.8,30.04,South,169,0.0,0.0,97,0.00,,,0.00,VWS V14.00,2013-09-20 11:02:00,
2013-09-20 07:07:00,60.6,59.8,30.04,South,169,0.0,0.0,97,0.00,,,0.00,VWS V14.00,2013-09-20 11:07:00,
2013-09-20 07:12:00,60.6,59.8,30.04,South,169,0.0,0.0,97,0.00,,,0.00,VWS V14.00,2013-09-20 11:12:00,
2013-09-20 07:17:00,60.5,59.7,30.04,South,169,0.0,0.0,97,0.00,,,0.00,VWS V14.00,2013-09-20 11:17:00,
2013-09-20 07:22:00,60.6,60.0,30.04,South,169,0.0,0.0,98,0.00,,,0.00,VWS V14.00,2013-09-20 11:22:00,
2013-09-20 07:27:00,60.7,60.1,30.04,South,169,0.0,0.0,98,0.00,,,0.00,VWS V14.00,2013-09-20 11:27:00,
2013-09-20 07:30:00,60.7,60.1,30.03,North,0,0.0,0.0,98,0.00,,,0.00,VWS V14.00,2013-09-20 11:30:00,
2013-09-20 07:44:00,61.5,60.9,30.04,South,169,0.0,0.0,98,0.00,,,0.00,VWS V14.00,2013-09-20 11:44:00,
2013-09-20 07:49:00,62.0,61.7,30.04,South,169,0.0,0.0,99,0.00,,,0.00,VWS V14.00,2013-09-20 11:49:00,
2013-09-20 07:54:00,62.3,62.0,30.04,South,169,0.0,0.0,99,0.00,,,0.00,VWS V14.00,2013-09-20 11:54:00,
2013-09-20 07:59:00,62.6,62.3,30.04,South,169,0.0,0.0,99,0.00,,,0.00,VWS V14.00,2013-09-20 11:59:00,
2013-09-20 08:04:00,62.8,62.2,30.04,South,169,0.0,0.0,98,0.00,,,0.00,VWS V14.00,2013-09-20 12:04:00,
2013-09-20 08:09:00,63.3,62.7,30.04,South,169,1.0,1.0,98,0.00,,,0.00,VWS V14.00,2013-09-20 12:09:00,
2013-09-20 08:14:00,63.9,63.3,30.04,South,169,0.0,1.0,98,0.00,,,0.00,VWS V14.00,2013-09-20 12:14:00,
2013-09-20 08:19:00,64.4,63.5,30.04,South,169,0.0,1.0,97,0.00,,,0.00,VWS V14.00,2013-09-20 12:19:00,
2013-09-20 08:24:00,65.2,64.3,30.04,South,169,0.0,0.0,97,0.00,,,0.00,VWS V14.00,2013-09-20 12:24:00,
2013-09-20 08:29:00,66.3,65.1,30.04,South,169,0.0,0.0,96,0.00,,,0.00,VWS V14.00,2013-09-20 12:29:00,
2013-09-20 08:35:00,67.0,65.2,30.04,South,169,0.0,1.0,94,0.00,,,0.00,VWS V14.00,2013-09-20 12:35:00,
2013-09-20 08:40:00,67.8,65.7,30.04,South,169,0.0,1.0,93,0.00,,,0.00,VWS V14.00,2013-09-20 12:40:00,
2013-09-20 08:45:00,68.7,66.0,30.04,South,169,0.0,0.0,91,0.00,,,0.00,VWS V14.00,2013-09-20 12:45:00,
2013-09-20 08:50:00,69.2,65.5,30.05,South,169,0.0,0.0,88,0.00,,,0.00,VWS V14.00,2013-09-20 12:50:00,
2013-09-20 08:55:00,70.2,66.8,30.04,South,169,0.0,1.0,89,0.00,,,0.00,VWS V14.00,2013-09-20 12:55:00,
2013-09-20 09:00:00,71.0,66.6,30.04,South,169,0.0,1.0,86,0.00,,,0.00,VWS V14.00,2013-09-20 13:00:00,
2013-09-20 09:05:00,71.7,66.3,30.04,South,169,0.0,0.0,83,0.00,,,0.00,VWS V14.00,2013-09-20 13:05:00,
2013-09-20 09:10:00,71.9,65.0,30.05,South,169,0.0,1.0,79,0.00,,,0.00,VWS V14.00,2013-09-20 13:10:00,
2013-09-20 09:15:00,71.7,65.9,30.05,South,169,0.0,0.0,82,0.00,,,0.00,VWS V14.00,2013-09-20 13:15:00,
2013-09-20 09:20:00,71.6,65.8,30.05,South,169,0.0,0.0,82,0.00,,,0.00,VWS V14.00,2013-09-20 13:20:00,
2013-09-20 09:26:00,71.5,65.4,30.05,South,169,0.0,1.0,81,0.00,,,0.00,VWS V14.00,2013-09-20 13:26:00,
2013-09-20 09:31:00,71.5,65.7,30.05,South,169,2.0,2.0,82,0.00,,,0.00,VWS V14.00,2013-09-20 13:31:00,
2013-09-20 09:36:00,71.6,65.8,30.05,ENE,68,2.0,2.0,82,0.00,,,0.00,VWS V14.00,2013-09-20 13:36:00,
2013-09-20 09:41:00,71.8,64.9,30.05,NE,52,1.0,2.0,79,0.00,,,0.00,VWS V14.00,2013-09-20 13:41:00,
2013-09-20 09:46:00,72.3,64.7,30.05,ENE,60,2.0,3.0,77,0.00,,,0.00,VWS V14.00,2013-09-20 13:46:00,
2013-09-20 09:51:00,72.9,64.1,30.05,NE,52,1.0,4.0,74,0.00,,,0.00,VWS V14.00,2013-09-20 13:51:00,
2013-09-20 09:56:00,73.7,64.1,30.05,NE,49,2.0,3.0,72,0.00,,,0.00,VWS V14.00,2013-09-20 13:56:00,
2013-09-20 10:01:00,74.0,63.2,30.05,ENE,63,1.0,2.0,69,0.00,,,0.00,VWS V14.00,2013-09-20 14:01:00,
2013-09-20 10:06:00,74.2,64.2,30.05,ENE,63,0.0,2.0,71,0.00,,,0.00,VWS V14.00,2013-09-20 14:06:00,
2013-09-20 10:11:00,74.3,64.3,30.05,ENE,63,1.0,1.0,71,0.00,,,0.00,VWS V14.00,2013-09-20 14:11:00,
2013-09-20 10:17:00,74.5,65.3,30.05,ENE,63,0.0,1.0,73,0.00,,,0.00,VWS V14.00,2013-09-20 14:17:00,
2013-09-20 10:22:00,74.7,65.1,30.05,ENE,63,2.0,2.0,72,0.00,,,0.00,VWS V14.00,2013-09-20 14:22:00,
2013-09-20 10:27:00,74.9,64.5,30.05,ENE,63,0.0,3.0,70,0.00,,,0.00,VWS V14.00,2013-09-20 14:27:00,
2013-09-20 10:32:00,75.0,64.6,30.05,ENE,63,1.0,2.0,70,0.00,,,0.00,VWS V14.00,2013-09-20 14:32:00,
2013-09-20 10:37:00,75.1,65.1,30.05,ENE,63,0.0,2.0,71,0.00,,,0.00,VWS V14.00,2013-09-20 14:37:00,
2013-09-20 10:42:00,75.4,65.8,30.06,ENE,63,1.0,1.0,72,0.00,,,0.00,VWS V14.00,2013-09-20 14:42:00,
2013-09-20 10:47:00,75.5,65.0,30.06,ENE,63,0.0,2.0,70,0.00,,,0.00,VWS V14.00,2013-09-20 14:47:00,
2013-09-20 10:52:00,75.7,65.6,30.05,ENE,63,0.0,2.0,71,0.00,,,0.00,VWS V14.00,2013-09-20 14:52:00,
2013-09-20 10:57:00,75.7,65.6,30.05,ENE,57,1.0,3.0,71,0.00,,,0.00,VWS V14.00,2013-09-20 14:57:00,
2013-09-20 11:03:00,75.7,64.8,30.05,ENE,65,2.0,3.0,69,0.00,,,0.00,VWS V14.00,2013-09-20 15:03:00,
2013-09-20 11:08:00,75.6,65.9,30.05,ENE,65,1.0,3.0,72,0.00,,,0.00,VWS V14.00,2013-09-20 15:08:00,
2013-09-20 11:13:00,75.5,65.4,30.05,ENE,65,0.0,2.0,71,0.00,,,0.00,VWS V14.00,2013-09-20 15:13:00,
2013-09-20 11:18:00,75.4,64.9,30.05,ENE,65,0.0,2.0,70,0.00,,,0.00,VWS V14.00,2013-09-20 15:18:00,
2013-09-20 11:23:00,75.4,65.3,30.05,ENE,63,1.0,2.0,71,0.00,,,0.00,VWS V14.00,2013-09-20 15:23:00,
2013-09-20 11:28:00,75.4,64.5,30.05,ENE,63,1.0,3.0,69,0.00,,,0.00,VWS V14.00,2013-09-20 15:28:00,
2013-09-20 11:33:00,75.4,64.9,30.05,ENE,63,0.0,2.0,70,0.00,,,0.00,VWS V14.00,2013-09-20 15:33:00,
2013-09-20 11:38:00,75.6,65.9,30.05,ENE,63,0.0,2.0,72,0.00,,,0.00,VWS V14.00,2013-09-20 15:38:00,
2013-09-20 11:43:00,75.9,65.8,30.05,ENE,63,0.0,1.0,71,0.00,,,0.00,VWS V14.00,2013-09-20 15:43:00,
2013-09-20 11:48:00,76.2,66.9,30.05,ENE,63,0.0,2.0,73,0.00,,,0.00,VWS V14.00,2013-09-20 15:48:00,
2013-09-20 11:53:00,76.4,66.3,30.04,ENE,63,1.0,2.0,71,0.00,,,0.00,VWS V14.00,2013-09-20 15:53:00,
2013-09-20 11:59:00,76.3,66.2,30.04,NE,51,1.0,3.0,71,0.00,,,0.00,VWS V14.00,2013-09-20 15:59:00,
2013-09-20 12:04:00,76.1,66.4,30.04,NE,51,0.0,2.0,72,0.00,,,0.00,VWS V14.00,2013-09-20 16:04:00,
2013-09-20 12:09:00,76.1,66.4,30.04,NE,51,0.0,2.0,72,0.00,,,0.00,VWS V14.00,2013-09-20 16:09:00,
2013-09-20 12:14:00,76.0,65.5,30.04,ENE,57,2.0,4.0,70,0.00,,,0.00,VWS V14.00,2013-09-20 16:14:00,
2013-09-20 12:19:00,76.0,66.7,30.04,ENE,58,0.0,4.0,73,0.00,,,0.00,VWS V14.00,2013-09-20 16:19:00,
2013-09-20 12:24:00,76.1,66.0,30.03,ENE,58,0.0,1.0,71,0.00,,,0.00,VWS V14.00,2013-09-20 16:24:00,
2013-09-20 12:29:00,76.3,66.2,30.03,ENE,57,1.0,2.0,71,0.00,,,0.00,VWS V14.00,2013-09-20 16:29:00,
2013-09-20 12:34:00,76.5,66.0,30.03,ENE,57,0.0,3.0,70,0.00,,,0.00,VWS V14.00,2013-09-20 16:34:00,
2013-09-20 12:39:00,76.7,67.0,30.03,ENE,57,0.0,3.0,72,0.00,,,0.00,VWS V14.00,2013-09-20 16:39:00,
2013-09-20 12:44:00,76.8,66.3,30.03,NE,55,2.0,3.0,70,0.00,,,0.00,VWS V14.00,2013-09-20 16:44:00,
2013-09-20 12:49:00,76.7,65.8,30.03,NE,45,1.0,3.0,69,0.00,,,0.00,VWS V14.00,2013-09-20 16:49:00,
2013-09-20 12:55:00,76.5,65.2,30.03,ENE,58,1.0,2.0,68,0.00,,,0.00,VWS V14.00,2013-09-20 16:55:00,
2013-09-20 13:00:00,76.5,66.0,30.02,ENE,58,1.0,3.0,70,0.00,,,0.00,VWS V14.00,2013-09-20 17:00:00,
2013-09-20 13:05:00,76.5,65.6,30.03,ENE,58,1.0,2.0,69,0.00,,,0.00,VWS V14.00,2013-09-20 17:05:00,
2013-09-20 13:10:00,76.4,65.1,30.02,ENE,57,0.0,3.0,68,0.00,,,0.00,VWS V14.00,2013-09-20 17:10:00,
2013-09-20 13:13:00,76.4,65.9,30.02,ENE,58,1.0,2.0,70,0.00,,,0.00,VWS V14.00,2013-09-20 17:13:00,
2013-09-20 13:15:00,76.4,65.9,30.02,ENE,58,1.0,2.0,70,0.00,,,0.00,VWS V14.00,2013-09-20 17:15:00,
2013-09-20 13:20:00,76.4,65.9,30.02,ENE,58,1.0,2.0,70,0.00,,,0.00,VWS V14.00,2013-09-20 17:20:00,
2013-09-20 13:55:00,74.5,66.8,30.01,NE,38,1.0,2.0,77,0.00,,,0.00,VWS V14.00,2013-09-20 17:55:00,
2013-09-20 14:00:00,74.1,67.2,30.01,ENE,63,3.0,3.0,79,0.00,,,0.00,VWS V14.00,2013-09-20 18:00:00,
2013-09-20 14:05:00,73.6,66.7,30.01,NE,38,1.0,3.0,79,0.00,,,0.00,VWS V14.00,2013-09-20 18:05:00,
2013-09-20 14:10:00,73.3,67.1,30.01,NE,38,2.0,3.0,81,0.00,,,0.00,VWS V14.00,2013-09-20 18:10:00,
2013-09-20 14:15:00,73.0,67.2,30.01,NE,42,1.0,6.0,82,0.00,,,0.00,VWS V14.00,2013-09-20 18:15:00,
2013-09-20 14:20:00,72.4,66.9,30.01,NE,55,2.0,6.0,83,0.00,,,0.00,VWS V14.00,2013-09-20 18:20:00,
2013-09-20 14:25:00,72.0,66.9,30.00,NE,36,3.0,5.0,84,0.00,,,0.00,VWS V14.00,2013-09-20 18:25:00,
2013-09-20 14:30:00,71.6,66.5,30.00,NE,43,3.0,5.0,84,0.00,,,0.00,VWS V14.00,2013-09-20 18:30:00,
2013-09-20 14:36:00,71.6,67.2,30.00,ENE,57,1.0,4.0,86,0.00,,,0.00,VWS V14.00,2013-09-20 18:36:00,
2013-09-20 14:41:00,71.5,67.1,30.00,NE,53,3.0,5.0,86,0.00,,,0.00,VWS V14.00,2013-09-20 18:41:00,
2013-09-20 14:46:00,71.3,66.9,30.00,NE,51,2.0,4.0,86,0.00,,,0.00,VWS V14.00,2013-09-20 18:46:00,
2013-09-20 14:51:00,71.0,66.6,29.99,NNE,30,2.0,6.0,86,0.00,,,0.00,VWS V14.00,2013-09-20 18:51:00,
2013-09-20 14:56:00,70.9,66.8,29.99,NE,40,3.0,3.0,87,0.00,,,0.00,VWS V14.00,2013-09-20 18:56:00,
2013-09-20 15:01:00,70.8,66.7,29.99,NE,40,1.0,3.0,87,0.00,,,0.00,VWS V14.00,2013-09-20 19:01:00,
2013-09-20 15:06:00,70.7,67.0,29.99,NE,44,1.0,3.0,88,0.00,,,0.00,VWS V14.00,2013-09-20 19:06:00,
2013-09-20 15:11:00,70.7,67.0,29.99,NE,44,0.0,1.0,88,0.00,,,0.00,VWS V14.00,2013-09-20 19:11:00,
2013-09-20 15:17:00,70.6,66.9,29.98,ENE,63,4.0,4.0,88,0.00,,,0.00,VWS V14.00,2013-09-20 19:17:00,
2013-09-20 15:22:00,70.6,66.9,29.98,NE,46,1.0,2.0,88,0.00,,,0.00,VWS V14.00,2013-09-20 19:22:00,
2013-09-20 15:28:00,70.6,67.2,29.98,ENE,65,1.0,3.0,89,0.00,,,0.00,VWS V14.00,2013-09-20 19:28:00,
2013-09-20 15:33:00,70.6,66.9,29.98,ENE,64,0.0,1.0,88,0.00,,,0.00,VWS V14.00,2013-09-20 19:33:00,
2013-09-20 15:38:00,70.6,66.9,29.98,NE,54,1.0,3.0,88,0.00,,,0.00,VWS V14.00,2013-09-20 19:38:00,
2013-09-20 15:43:00,70.5,66.8,29.98,ENE,63,2.0,3.0,88,0.00,,,0.00,VWS V14.00,2013-09-20 19:43:00,
2013-09-20 15:48:00,70.5,67.1,29.98,NE,55,1.0,3.0,89,0.00,,,0.00,VWS V14.00,2013-09-20 19:48:00,
2013-09-20 15:53:00,70.6,67.2,29.97,NE,55,0.0,1.0,89,0.00,,,0.00,VWS V14.00,2013-09-20 19:53:00,
2013-09-20 15:58:00,70.8,67.4,29.97,NE,55,0.0,2.0,89,0.00,,,0.00,VWS V14.00,2013-09-20 19:58:00,
2013-09-20 16:03:00,71.0,67.6,29.97,NE,55,1.0,1.0,89,0.00,,,0.00,VWS V14.00,2013-09-20 20:03:00,
2013-09-20 16:08:00,71.2,67.8,29.97,NE,56,0.0,2.0,89,0.00,,,0.00,VWS V14.00,2013-09-20 20:08:00,
2013-09-20 16:14:00,71.4,67.7,29.97,ENE,57,1.0,2.0,88,0.00,,,0.00,VWS V14.00,2013-09-20 20:14:00,
2013-09-20 16:19:00,71.5,67.4,29.97,ENE,57,0.0,2.0,87,0.00,,,0.00,VWS V14.00,2013-09-20 20:19:00,
2013-09-20 16:24:00,71.7,67.6,29.97,ENE,62,1.0,3.0,87,0.00,,,0.00,VWS V14.00,2013-09-20 20:24:00,
2013-09-20 16:29:00,71.8,67.7,29.97,ENE,61,0.0,3.0,87,0.00,,,0.00,VWS V14.00,2013-09-20 20:29:00,
2013-09-20 16:34:00,72.0,67.9,29.97,NE,48,0.0,2.0,87,0.00,,,0.00,VWS V14.00,2013-09-20 20:34:00,
2013-09-20 16:39:00,72.1,68.0,29.96,NE,49,0.0,2.0,87,0.00,,,0.00,VWS V14.00,2013-09-20 20:39:00,
2013-09-20 16:44:00,72.3,67.9,29.96,NE,48,1.0,1.0,86,0.00,,,0.00,VWS V14.00,2013-09-20 20:44:00,
2013-09-20 16:49:00,72.4,67.6,29.96,NE,49,0.0,1.0,85,0.00,,,0.00,VWS V14.00,2013-09-20 20:49:00,
2013-09-20 16:54:00,72.5,68.1,29.96,NE,49,0.0,2.0,86,0.00,,,0.00,VWS V14.00,2013-09-20 20:54:00,
2013-09-20 16:59:00,72.6,68.2,29.96,ENE,57,0.0,2.0,86,0.00,,,0.00,VWS V14.00,2013-09-20 20:59:00,
2013-09-20 17:05:00,72.7,68.3,29.96,ENE,57,1.0,2.0,86,0.00,,,0.00,VWS V14.00,2013-09-20 21:05:00,
2013-09-20 17:10:00,72.7,67.9,29.96,ENE,57,0.0,2.0,85,0.00,,,0.00,VWS V14.00,2013-09-20 21:10:00,
2013-09-20 17:15:00,72.7,67.6,29.96,ENE,57,1.0,2.0,84,0.00,,,0.00,VWS V14.00,2013-09-20 21:15:00,
2013-09-20 17:20:00,72.6,67.5,29.96,ENE,57,0.0,2.0,84,0.00,,,0.00,VWS V14.00,2013-09-20 21:20:00,
2013-09-20 17:25:00,72.6,67.5,29.96,ENE,57,0.0,1.0,84,0.00,,,0.00,VWS V14.00,2013-09-20 21:25:00,
2013-09-20 17:30:00,72.6,67.5,29.95,ENE,57,0.0,1.0,84,0.00,,,0.00,VWS V14.00,2013-09-20 21:30:00,
2013-09-20 17:35:00,72.6,67.5,29.95,ENE,57,0.0,1.0,84,0.00,,,0.00,VWS V14.00,2013-09-20 21:35:00,
2013-09-20 17:40:00,72.6,67.8,29.95,ENE,57,0.0,1.0,85,0.00,,,0.00,VWS V14.00,2013-09-20 21:40:00,
2013-09-20 17:45:00,72.6,67.8,29.95,ENE,57,0.0,1.0,85,0.00,,,0.00,VWS V14.00,2013-09-20 21:45:00,
2013-09-20 17:50:00,72.6,67.8,29.95,ENE,57,0.0,1.0,85,0.00,,,0.00,VWS V14.00,2013-09-20 21:50:00,
2013-09-20 17:55:00,72.6,68.2,29.95,ENE,57,0.0,0.0,86,0.00,,,0.00,VWS V14.00,2013-09-20 21:55:00,
2013-09-20 18:01:00,72.6,68.5,29.95,ENE,57,0.0,0.0,87,0.00,,,0.00,VWS V14.00,2013-09-20 22:01:00,
2013-09-20 18:06:00,72.6,68.5,29.95,ENE,57,0.0,0.0,87,0.00,,,0.00,VWS V14.00,2013-09-20 22:06:00,
2013-09-20 18:11:00,72.6,68.5,29.94,ENE,57,0.0,0.0,87,0.00,,,0.00,VWS V14.00,2013-09-20 22:11:00,
2013-09-20 18:16:00,72.4,68.7,29.94,ENE,57,0.0,0.0,88,0.00,,,0.00,VWS V14.00,2013-09-20 22:16:00,
2013-09-20 18:21:00,72.1,68.3,29.94,ENE,57,0.0,0.0,88,0.00,,,0.00,VWS V14.00,2013-09-20 22:21:00,
2013-09-20 18:26:00,72.0,68.6,29.94,ENE,57,0.0,0.0,89,0.00,,,0.00,VWS V14.00,2013-09-20 22:26:00,
2013-09-20 18:31:00,72.0,68.6,29.94,ENE,57,0.0,0.0,89,0.00,,,0.00,VWS V14.00,2013-09-20 22:31:00,
2013-09-20 18:36:00,72.1,69.0,29.94,ENE,57,0.0,0.0,90,0.00,,,0.00,VWS V14.00,2013-09-20 22:36:00,
2013-09-20 18:41:00,72.0,68.9,29.94,ENE,57,0.0,0.0,90,0.00,,,0.00,VWS V14.00,2013-09-20 22:41:00,
2013-09-20 18:46:00,71.9,69.1,29.94,ENE,57,0.0,0.0,91,0.00,,,0.00,VWS V14.00,2013-09-20 22:46:00,
2013-09-20 18:52:00,71.8,68.7,29.95,ENE,57,0.0,0.0,90,0.00,,,0.00,VWS V14.00,2013-09-20 22:52:00,
2013-09-20 18:57:00,71.7,68.6,29.95,ENE,57,0.0,0.0,90,0.00,,,0.00,VWS V14.00,2013-09-20 22:57:00,
2013-09-20 19:02:00,71.7,68.9,29.95,ENE,57,0.0,0.0,91,0.00,,,0.00,VWS V14.00,2013-09-20 23:02:00,
2013-09-20 19:07:00,71.6,68.8,29.95,ENE,57,0.0,0.0,91,0.00,,,0.00,VWS V14.00,2013-09-20 23:07:00,
2013-09-20 19:12:00,71.5,68.7,29.94,ENE,57,0.0,0.0,91,0.00,,,0.00,VWS V14.00,2013-09-20 23:12:00,
2013-09-20 19:17:00,71.2,68.4,29.94,ENE,57,0.0,0.0,91,0.00,,,0.00,VWS V14.00,2013-09-20 23:17:00,
2013-09-20 19:22:00,71.0,68.6,29.94,ENE,57,0.0,0.0,92,0.00,,,0.00,VWS V14.00,2013-09-20 23:22:00,
2013-09-20 19:27:00,70.8,68.4,29.94,ENE,57,0.0,0.0,92,0.00,,,0.00,VWS V14.00,2013-09-20 23:27:00,
2013-09-20 19:33:00,70.6,68.2,29.94,ENE,57,0.0,0.0,92,0.00,,,0.00,VWS V14.00,2013-09-20 23:33:00,
2013-09-20 19:38:00,70.4,68.0,29.94,ENE,57,0.0,0.0,92,0.00,,,0.00,VWS V14.00,2013-09-20 23:38:00,
2013-09-20 19:43:00,70.3,68.2,29.94,ENE,57,0.0,0.0,93,0.00,,,0.00,VWS V14.00,2013-09-20 23:43:00,
2013-09-20 19:48:00,70.2,68.1,29.95,ENE,57,0.0,0.0,93,0.00,,,0.00,VWS V14.00,2013-09-20 23:48:00,
2013-09-20 19:53:00,70.1,68.0,29.95,ENE,57,0.0,0.0,93,0.00,,,0.00,VWS V14.00,2013-09-20 23:53:00,
2013-09-20 19:58:00,70.0,67.9,29.95,ENE,57,0.0,0.0,93,0.00,,,0.00,VWS V14.00,2013-09-20 23:58:00,
2013-09-20 20:03:00,70.0,68.2,29.95,ENE,57,0.0,0.0,94,0.00,,,0.00,VWS V14.00,2013-09-21 00:03:00,
2013-09-20 20:08:00,69.9,68.1,29.94,ENE,57,0.0,0.0,94,0.00,,,0.00,VWS V14.00,2013-09-21 00:08:00,
2013-09-20 20:13:00,69.9,68.1,29.94,ENE,57,0.0,0.0,94,0.00,,,0.00,VWS V14.00,2013-09-21 00:13:00,
2013-09-20 20:18:00,69.8,68.0,29.94,ENE,57,0.0,0.0,94,0.00,,,0.00,VWS V14.00,2013-09-21 00:18:00,
2013-09-20 20:24:00,69.7,67.9,29.94,ENE,57,0.0,0.0,94,0.00,,,0.00,VWS V14.00,2013-09-21 00:24:00,
2013-09-20 20:29:00,69.7,67.9,29.95,ENE,57,0.0,0.0,94,0.00,,,0.00,VWS V14.00,2013-09-21 00:29:00,
2013-09-20 20:34:00,69.6,67.8,29.95,ENE,57,0.0,0.0,94,0.00,,,0.00,VWS V14.00,2013-09-21 00:34:00,
2013-09-20 20:39:00,69.6,68.1,29.95,ENE,57,0.0,0.0,95,0.00,,,0.00,VWS V14.00,2013-09-21 00:39:00,
2013-09-20 20:44:00,69.6,68.1,29.95,ENE,57,0.0,0.0,95,0.00,,,0.00,VWS V14.00,2013-09-21 00:44:00,
2013-09-20 20:49:00,69.6,68.1,29.95,ENE,57,0.0,0.0,95,0.00,,,0.00,VWS V14.00,2013-09-21 00:49:00,
2013-09-20 20:54:00,69.6,68.1,29.95,ENE,57,0.0,0.0,95,0.00,,,0.00,VWS V14.00,2013-09-21 00:54:00,
2013-09-20 20:59:00,69.6,68.1,29.95,ENE,57,0.0,0.0,95,0.00,,,0.00,VWS V14.00,2013-09-21 00:59:00,
2013-09-20 21:05:00,69.6,68.1,29.96,ENE,57,0.0,0.0,95,0.00,,,0.00,VWS V14.00,2013-09-21 01:05:00,
2013-09-20 21:10:00,69.6,68.1,29.95,ENE,57,0.0,0.0,95,0.00,,,0.00,VWS V14.00,2013-09-21 01:10:00,
2013-09-20 21:15:00,69.6,68.4,29.96,ENE,57,0.0,0.0,96,0.00,,,0.00,VWS V14.00,2013-09-21 01:15:00,
2013-09-20 21:20:00,69.7,68.5,29.96,ENE,57,0.0,0.0,96,0.00,,,0.00,VWS V14.00,2013-09-21 01:20:00,
2013-09-20 21:25:00,69.6,68.4,29.96,ENE,57,0.0,0.0,96,0.00,,,0.00,VWS V14.00,2013-09-21 01:25:00,
2013-09-20 21:30:00,69.7,68.5,29.95,ENE,57,0.0,0.0,96,0.00,,,0.00,VWS V14.00,2013-09-21 01:30:00,
2013-09-20 21:35:00,69.6,68.4,29.95,ENE,57,0.0,0.0,96,0.00,,,0.00,VWS V14.00,2013-09-21 01:35:00,
2013-09-20 21:40:00,69.6,68.4,29.95,ENE,57,0.0,0.0,96,0.00,,,0.00,VWS V14.00,2013-09-21 01:40:00,
2013-09-20 21:45:00,69.6,68.4,29.95,ENE,57,0.0,0.0,96,0.00,,,0.00,VWS V14.00,2013-09-21 01:45:00,
2013-09-20 21:51:00,69.6,68.4,29.95,ENE,57,0.0,0.0,96,0.00,,,0.00,VWS V14.00,2013-09-21 01:51:00,
2013-09-20 21:56:00,69.6,68.4,29.95,ENE,57,0.0,0.0,96,0.00,,,0.00,VWS V14.00,2013-09-21 01:56:00,
2013-09-20 22:01:00,69.6,68.4,29.95,ENE,57,0.0,0.0,96,0.00,,,0.00,VWS V14.00,2013-09-21 02:01:00,
2013-09-20 22:06:00,69.6,68.4,29.95,ENE,57,0.0,0.0,96,0.00,,,0.00,VWS V14.00,2013-09-21 02:06:00,
2013-09-20 22:11:00,69.6,68.4,29.95,ENE,57,0.0,0.0,96,0.00,,,0.00,VWS V14.00,2013-09-21 02:11:00,
2013-09-20 22:16:00,69.6,68.4,29.95,ENE,57,0.0,1.0,96,0.00,,,0.00,VWS V14.00,2013-09-21 02:16:00,
2013-09-20 22:21:00,69.6,68.4,29.94,ENE,57,0.0,0.0,96,0.00,,,0.00,VWS V14.00,2013-09-21 02:21:00,
2013-09-20 22:26:00,69.6,68.4,29.94,ENE,57,0.0,0.0,96,0.00,,,0.00,VWS V14.00,2013-09-21 02:26:00,
2013-09-20 22:31:00,69.6,68.4,29.94,ENE,57,0.0,0.0,96,0.00,,,0.00,VWS V14.00,2013-09-21 02:31:00,
2013-09-20 22:36:00,69.6,68.4,29.94,ENE,57,0.0,1.0,96,0.00,,,0.00,VWS V14.00,2013-09-21 02:36:00,
2013-09-20 22:42:00,69.6,68.4,29.94,ENE,57,0.0,0.0,96,0.00,,,0.00,VWS V14.00,2013-09-21 02:42:00,
2013-09-20 22:47:00,69.5,68.3,29.94,ENE,57,0.0,1.0,96,0.00,,,0.00,VWS V14.00,2013-09-21 02:47:00,
2013-09-20 22:52:00,69.5,68.3,29.94,ENE,57,0.0,0.0,96,0.00,,,0.00,VWS V14.00,2013-09-21 02:52:00,
2013-09-20 22:57:00,69.6,68.4,29.94,ENE,57,0.0,0.0,96,0.00,,,0.00,VWS V14.00,2013-09-21 02:57:00,
2013-09-20 23:02:00,69.5,68.3,29.93,ENE,57,0.0,0.0,96,0.00,,,0.00,VWS V14.00,2013-09-21 03:02:00,
2013-09-20 23:07:00,69.5,68.3,29.93,ENE,57,0.0,0.0,96,0.00,,,0.00,VWS V14.00,2013-09-21 03:07:00,
2013-09-20 23:12:00,69.5,68.3,29.93,ENE,57,0.0,0.0,96,0.00,,,0.00,VWS V14.00,2013-09-21 03:12:00,
2013-09-20 23:17:00,69.4,68.5,29.93,ENE,57,0.0,0.0,97,0.00,,,0.00,VWS V14.00,2013-09-21 03:17:00,
2013-09-20 23:22:00,69.5,68.6,29.93,ENE,57,0.0,0.0,97,0.00,,,0.00,VWS V14.00,2013-09-21 03:22:00,
2013-09-20 23:28:00,69.4,68.5,29.93,ENE,57,0.0,0.0,97,0.00,,,0.00,VWS V14.00,2013-09-21 03:28:00,
2013-09-20 23:33:00,69.4,68.5,29.93,ENE,57,0.0,1.0,97,0.00,,,0.00,VWS V14.00,2013-09-21 03:33:00,
2013-09-20 23:38:00,69.4,68.5,29.93,ENE,57,0.0,1.0,97,0.00,,,0.00,VWS V14.00,2013-09-21 03:38:00,
2013-09-20 23:43:00,69.3,68.4,29.93,ENE,57,0.0,0.0,97,0.00,,,0.00,VWS V14.00,2013-09-21 03:43:00,
2013-09-20 23:48:00,69.3,68.4,29.93,ENE,57,0.0,0.0,97,0.00,,,0.00,VWS V14.00,2013-09-21 03:48:00,
2013-09-20 23:53:00,69.4,68.5,29.93,ENE,57,0.0,0.0,97,0.00,,,0.00,VWS V14.00,2013-09-21 03:53:00,
2013-09-20 23:58:00,69.4,68.5,29.93,ENE,57,0.0,0.0,97,0.00,,,0.00,VWS V14.00,2013-09-21 03:58:00,